JA123P RJTT-RJFK

Flight info

Callsign JA123P
Flight time N/A
Altitude 43000
Route LAXAS Y56 TOHME Y54 TURFY Y24 SUC Y757 SPICA
Aircraft HDJT/L-SABDGRWY/H

Departure

Time 2026-02-17 12:43
Airport Tokyo Haneda International Airport (RJTT)

Arrival

Time N/A
Airport Kagoshima Airport (RJFK)
Time Latitude Longitude Altitude Speed Heading
2026-02-17 11:52 35.56346 139.75960 17 ft 0 kts 340°
2026-02-17 12:25 35.56349 139.75965 17 ft 1 kts 111°
2026-02-17 12:25 35.56325 139.75975 17 ft 9 kts 165°
2026-02-17 12:25 35.56276 139.75930 17 ft 12 kts 239°
2026-02-17 12:25 35.56228 139.75828 18 ft 15 kts 240°
2026-02-17 12:26 35.56148 139.75812 17 ft 16 kts 145°
2026-02-17 12:26 35.56046 139.75897 17 ft 20 kts 145°
2026-02-17 12:26 35.55938 139.75989 17 ft 19 kts 145°
2026-02-17 12:27 35.55861 139.76197 16 ft 17 kts 35°
2026-02-17 12:27 35.55953 139.76283 17 ft 16 kts 59°
2026-02-17 12:27 35.55922 139.76397 17 ft 15 kts 126°
2026-02-17 12:27 35.55860 139.76504 17 ft 15 kts 125°
2026-02-17 12:28 35.55799 139.76612 18 ft 15 kts 124°
2026-02-17 12:28 35.55741 139.76713 18 ft 13 kts 124°
2026-02-17 12:28 35.55692 139.76799 21 ft 12 kts 125°
2026-02-17 12:28 35.55633 139.76902 19 ft 17 kts 126°
2026-02-17 12:29 35.55550 139.76970 18 ft 14 kts 150°
2026-02-17 12:29 35.55459 139.77036 16 ft 16 kts 152°
2026-02-17 12:29 35.55373 139.77095 15 ft 14 kts 149°
2026-02-17 12:29 35.55280 139.77161 15 ft 17 kts 150°
2026-02-17 12:30 35.55175 139.77236 17 ft 19 kts 150°
2026-02-17 12:30 35.55051 139.77324 15 ft 21 kts 149°
2026-02-17 12:30 35.54919 139.77418 15 ft 24 kts 150°
2026-02-17 12:31 35.54653 139.77606 14 ft 21 kts 149°
2026-02-17 12:31 35.54527 139.77696 16 ft 20 kts 150°
2026-02-17 12:31 35.54409 139.77780 14 ft 20 kts 151°
2026-02-17 12:31 35.54286 139.77867 14 ft 21 kts 150°
2026-02-17 12:32 35.54154 139.77960 14 ft 22 kts 150°
2026-02-17 12:32 35.54030 139.78049 14 ft 21 kts 149°
2026-02-17 12:32 35.54011 139.78182 15 ft 17 kts 59°
2026-02-17 12:32 35.54061 139.78287 19 ft 12 kts 59°
2026-02-17 12:33 35.54099 139.78368 15 ft 11 kts 60°
2026-02-17 12:33 35.54133 139.78455 16 ft 9 kts 100°
2026-02-17 12:33 35.54095 139.78513 16 ft 10 kts 149°
2026-02-17 12:33 35.54018 139.78568 16 ft 17 kts 150°
2026-02-17 12:34 35.53902 139.78650 16 ft 22 kts 150°
2026-02-17 12:34 35.53767 139.78747 16 ft 20 kts 148°
2026-02-17 12:34 35.53658 139.78856 12 ft 21 kts 140°
2026-02-17 12:35 35.53450 139.79075 13 ft 17 kts 140°
2026-02-17 12:35 35.53377 139.79189 14 ft 17 kts 109°
2026-02-17 12:35 35.53398 139.79308 14 ft 15 kts 59°
2026-02-17 12:35 35.53452 139.79422 15 ft 16 kts 60°
2026-02-17 12:36 35.53511 139.79547 18 ft 17 kts 60°
2026-02-17 12:36 35.53578 139.79689 14 ft 22 kts 59°
2026-02-17 12:36 35.53651 139.79842 16 ft 17 kts 60°
2026-02-17 12:36 35.53705 139.79956 16 ft 13 kts 68°
2026-02-17 12:37 35.53685 139.80039 15 ft 10 kts 143°
2026-02-17 12:37 35.53608 139.80095 19 ft 17 kts 150°
2026-02-17 12:37 35.53513 139.80162 25 ft 14 kts 150°
2026-02-17 12:37 35.53419 139.80229 28 ft 17 kts 149°
2026-02-17 12:38 35.53317 139.80301 32 ft 17 kts 150°
2026-02-17 12:38 35.53228 139.80364 36 ft 14 kts 150°
2026-02-17 12:38 35.53144 139.80424 39 ft 13 kts 149°
2026-02-17 12:39 35.53003 139.80523 43 ft 12 kts 155°
2026-02-17 12:39 35.52945 139.80509 43 ft 11 kts 221°
2026-02-17 12:39 35.52874 139.80430 44 ft 17 kts 223°
2026-02-17 12:39 35.52774 139.80317 45 ft 21 kts 223°
2026-02-17 12:40 35.52670 139.80199 46 ft 20 kts 223°
2026-02-17 12:40 35.52568 139.80149 45 ft 15 kts 148°
2026-02-17 12:40 35.52506 139.80232 45 ft 12 kts 132°
2026-02-17 12:40 35.52450 139.80306 46 ft 10 kts 133°
2026-02-17 12:41 35.52430 139.80361 48 ft 6 kts 78°
2026-02-17 12:41 35.52448 139.80401 48 ft 3 kts 43°
2026-02-17 12:41 35.52452 139.80405 48 ft 0 kts 42°
2026-02-17 12:43 35.52800 139.80796 45 ft 89 kts 42°
2026-02-17 12:43 35.53401 139.81453 83 ft 139 kts 41°
2026-02-17 12:43 35.54124 139.82335 557 ft 152 kts 49°
2026-02-17 12:43 35.54458 139.83584 1156 ft 164 kts 96°
2026-02-17 12:44 35.54055 139.84901 1837 ft 166 kts 114°
2026-02-17 12:44 35.53589 139.86199 2491 ft 170 kts 112°
2026-02-17 12:44 35.53095 139.87652 3061 ft 196 kts 113°
2026-02-17 12:44 35.52568 139.89275 3824 ft 212 kts 113°
2026-02-17 12:45 35.51893 139.90931 4649 ft 223 kts 133°
2026-02-17 12:45 35.50623 139.91953 5714 ft 212 kts 162°
2026-02-17 12:45 35.49254 139.92605 6588 ft 217 kts 163°
2026-02-17 12:45 35.47828 139.93341 7408 ft 221 kts 162°
2026-02-17 12:46 35.46421 139.94089 8201 ft 226 kts 162°
2026-02-17 12:46 35.44971 139.94874 9011 ft 230 kts 162°
2026-02-17 12:46 35.43449 139.95403 9853 ft 223 kts 187°
2026-02-17 12:47 35.40819 139.93822 11351 ft 213 kts 222°
2026-02-17 12:47 35.39637 139.92724 12108 ft 215 kts 223°
2026-02-17 12:47 35.38544 139.91503 12865 ft 209 kts 240°
2026-02-17 12:47 35.37804 139.89974 13632 ft 209 kts 243°
2026-02-17 12:48 35.37023 139.88471 14340 ft 210 kts 241°
2026-02-17 12:48 35.36225 139.86967 15016 ft 210 kts 242°
2026-02-17 12:48 35.35432 139.85454 15685 ft 211 kts 242°
2026-02-17 12:48 35.34651 139.83958 16351 ft 212 kts 243°
2026-02-17 12:49 35.33844 139.82415 17028 ft 212 kts 243°
2026-02-17 12:49 35.33056 139.80911 17683 ft 213 kts 243°
2026-02-17 12:49 35.32253 139.79377 18331 ft 214 kts 243°
2026-02-17 12:49 35.31445 139.77835 18906 ft 215 kts 243°
2026-02-17 12:50 35.30635 139.76290 19492 ft 215 kts 244°
2026-02-17 12:50 35.29824 139.74743 20060 ft 216 kts 244°
2026-02-17 12:50 35.29011 139.73195 20626 ft 216 kts 244°
2026-02-17 12:51 35.27380 139.70088 21759 ft 217 kts 245°
2026-02-17 12:51 35.26562 139.68530 22319 ft 218 kts 245°
2026-02-17 12:51 35.25739 139.66965 22888 ft 219 kts 245°
2026-02-17 12:51 35.24915 139.65397 23455 ft 219 kts 245°
2026-02-17 12:52 35.24086 139.63822 23955 ft 220 kts 245°
2026-02-17 12:52 35.23252 139.62239 24397 ft 222 kts 245°
2026-02-17 12:52 35.22414 139.60643 24840 ft 223 kts 245°
2026-02-17 12:52 35.21578 139.59060 25280 ft 225 kts 245°
2026-02-17 12:53 35.20728 139.57445 25722 ft 226 kts 245°
2026-02-17 12:53 35.19869 139.55819 26171 ft 228 kts 246°
2026-02-17 12:53 35.19008 139.54184 26617 ft 229 kts 246°
2026-02-17 12:53 35.18139 139.52540 27056 ft 231 kts 246°
2026-02-17 12:54 35.17265 139.50882 27495 ft 232 kts 246°
2026-02-17 12:54 35.16385 139.49217 27938 ft 234 kts 246°
2026-02-17 12:54 35.15497 139.47536 28378 ft 236 kts 246°
2026-02-17 12:55 35.13704 139.44147 29252 ft 239 kts 246°
2026-02-17 12:55 35.12807 139.42453 29683 ft 241 kts 245°
2026-02-17 12:55 35.11894 139.40728 30115 ft 243 kts 246°
2026-02-17 12:55 35.10978 139.39000 30498 ft 244 kts 245°
2026-02-17 12:56 35.10064 139.37282 30969 ft 240 kts 246°
2026-02-17 12:56 35.09163 139.35587 31526 ft 234 kts 246°
2026-02-17 12:56 35.08288 139.33937 32064 ft 229 kts 246°
2026-02-17 12:56 35.07433 139.32327 32589 ft 223 kts 246°
2026-02-17 12:57 35.06606 139.30769 33099 ft 219 kts 247°
2026-02-17 12:57 35.05778 139.29210 33618 ft 214 kts 247°
2026-02-17 12:57 35.04987 139.27721 34111 ft 208 kts 248°
2026-02-17 12:57 35.04279 139.26212 34497 ft 202 kts 251°
2026-02-17 12:58 35.03672 139.24676 34828 ft 198 kts 253°
2026-02-17 12:58 35.03323 139.23648 35050 ft 196 kts 255°
2026-02-17 12:58 35.02878 139.22087 35371 ft 193 kts 258°
2026-02-17 12:59 35.02169 139.18431 36109 ft 188 kts 261°
2026-02-17 12:59 35.01990 139.17379 36330 ft 187 kts 261°
2026-02-17 12:59 35.01728 139.15837 36625 ft 185 kts 261°
2026-02-17 12:59 35.01469 139.14301 36922 ft 184 kts 261°
2026-02-17 13:00 35.01212 139.12776 37215 ft 183 kts 261°
2026-02-17 13:00 35.00957 139.11262 37522 ft 181 kts 261°
2026-02-17 13:00 35.00704 139.09766 37813 ft 179 kts 261°
2026-02-17 13:00 35.00453 139.08283 38103 ft 178 kts 261°
2026-02-17 13:01 35.00203 139.06806 38374 ft 177 kts 261°
2026-02-17 13:01 34.99957 139.05344 38619 ft 176 kts 262°
2026-02-17 13:01 34.99709 139.03880 38819 ft 176 kts 262°
2026-02-17 13:01 34.99461 139.02418 39059 ft 175 kts 262°
2026-02-17 13:02 34.99214 139.00965 39250 ft 176 kts 262°
2026-02-17 13:02 34.98976 138.99520 39419 ft 176 kts 263°
2026-02-17 13:02 34.98799 138.98045 39593 ft 176 kts 264°
2026-02-17 13:03 34.98615 138.95062 39929 ft 177 kts 266°
2026-02-17 13:03 34.98536 138.93558 40081 ft 178 kts 266°
2026-02-17 13:03 34.98457 138.92055 40244 ft 178 kts 266°
2026-02-17 13:03 34.98378 138.90543 40401 ft 179 kts 266°
2026-02-17 13:04 34.98299 138.89028 40553 ft 179 kts 266°
2026-02-17 13:04 34.98218 138.87505 40709 ft 180 kts 266°
2026-02-17 13:04 34.98141 138.85999 40850 ft 180 kts 265°
2026-02-17 13:04 34.98062 138.84474 40987 ft 181 kts 265°
2026-02-17 13:05 34.97983 138.82939 41117 ft 181 kts 266°
2026-02-17 13:05 34.97903 138.81403 41312 ft 182 kts 265°
2026-02-17 13:05 34.97819 138.79864 41484 ft 182 kts 265°
2026-02-17 13:05 34.97737 138.78319 41657 ft 183 kts 265°
2026-02-17 13:06 34.97654 138.76771 41821 ft 183 kts 265°
2026-02-17 13:06 34.97573 138.75231 41971 ft 184 kts 265°
2026-02-17 13:06 34.97491 138.73680 42116 ft 184 kts 265°
2026-02-17 13:07 34.97324 138.70561 42403 ft 185 kts 265°
2026-02-17 13:07 34.97241 138.68997 42552 ft 185 kts 265°
2026-02-17 13:07 34.97156 138.67430 42687 ft 185 kts 265°
2026-02-17 13:07 34.97071 138.65858 42833 ft 186 kts 265°
2026-02-17 13:08 34.96987 138.64284 42977 ft 186 kts 265°
2026-02-17 13:08 34.96902 138.62712 43113 ft 187 kts 265°
2026-02-17 13:08 34.96814 138.61109 43129 ft 191 kts 265°
2026-02-17 13:08 34.96725 138.59470 43136 ft 196 kts 265°
2026-02-17 13:09 34.96634 138.57795 43140 ft 200 kts 265°
2026-02-17 13:09 34.96540 138.56082 43141 ft 205 kts 265°
2026-02-17 13:09 34.96444 138.54324 43136 ft 210 kts 265°
2026-02-17 13:09 34.96346 138.52551 43136 ft 214 kts 265°
2026-02-17 13:10 34.96246 138.50719 43137 ft 218 kts 265°
2026-02-17 13:10 34.96142 138.48855 43138 ft 222 kts 265°
2026-02-17 13:10 34.96037 138.46953 43138 ft 226 kts 265°
2026-02-17 13:11 34.95821 138.43061 43132 ft 234 kts 265°
2026-02-17 13:11 34.95708 138.41068 43140 ft 237 kts 265°
2026-02-17 13:11 34.95595 138.39037 43140 ft 241 kts 265°
2026-02-17 13:11 34.95481 138.37016 43138 ft 244 kts 265°
2026-02-17 13:12 34.95362 138.34920 43138 ft 247 kts 265°
2026-02-17 13:12 34.95244 138.32827 43135 ft 250 kts 265°
2026-02-17 13:12 34.95126 138.30724 43138 ft 252 kts 265°
2026-02-17 13:12 34.95003 138.28560 43140 ft 254 kts 265°
2026-02-17 13:13 34.94880 138.26427 43137 ft 257 kts 265°
2026-02-17 13:13 34.94755 138.24242 43131 ft 259 kts 265°
2026-02-17 13:13 34.94629 138.22038 43128 ft 261 kts 265°
2026-02-17 13:13 34.94501 138.19821 43111 ft 263 kts 265°
2026-02-17 13:14 34.94372 138.17590 43112 ft 264 kts 265°
2026-02-17 13:14 34.94242 138.15361 43116 ft 264 kts 265°
2026-02-17 13:14 34.94114 138.13148 43104 ft 265 kts 265°
2026-02-17 13:15 34.93853 138.08629 43111 ft 266 kts 265°
2026-02-17 13:15 34.93717 138.06374 43112 ft 266 kts 265°
2026-02-17 13:15 34.93588 138.04157 43110 ft 265 kts 265°
2026-02-17 13:15 34.93458 138.02003 43113 ft 265 kts 265°